Location: La Silve
(44.2414°N, 5.8889°E)
Time: 16:32:12
(UTC+00:00)

Tiangong - Pass Details

Date: 30 June 2021
Orbit: 374 x 386 km, 41.5° (Epoch: 25 July)

Event Time Altitude Azimuth Distance (km) Brightness Sun altitude
Exits shadow 02:17:55 29° 217° (SW) 724 1.8 -13.5°
Maximum altitude 02:18:24 31° 197° (SSW) 693 1.8 -13.5°
Drops below altitude 10° 02:21:12 10° 133° (SE) 1,384 3.8 -13.2°
Sets 02:23:24 0° 122° (ESE) 2,236 5.0 -12.9°
